Time,TemperatureF,DewpointF,PressureIn,WindDirection,WindDirectionDegrees,WindSpeedMPH,WindSpeedGustMPH,Humidity,HourlyPrecipIn,Conditions,Clouds,dailyrainin,SolarRadiationWatts/m^2,SoftwareType,DateUTC
2013-06-26 00:00:00,80.7,72.4,29.92,South,180,0.0,5.0,76,0.00,,---,0.00,0.00,VWS V14.00,2013-06-26 05:00:00,
2013-06-26 00:01:00,80.5,72.6,29.91,South,182,0.0,0.0,77,0.00,,---,0.00,0.00,VWS V14.00,2013-06-26 05:01:00,
2013-06-26 00:06:00,80.4,72.5,29.91,SSW,199,0.0,6.0,77,0.00,,---,0.00,0.00,VWS V14.00,2013-06-26 05:06:00,
2013-06-26 00:11:00,80.3,72.4,29.91,SSW,193,0.0,6.0,77,0.00,,---,0.00,0.00,VWS V14.00,2013-06-26 05:11:00,
2013-06-26 00:16:00,80.2,72.7,29.91,South,188,0.0,6.0,78,0.00,,---,0.00,0.00,VWS V14.00,2013-06-26 05:16:00,
2013-06-26 00:21:00,80.1,72.6,29.91,South,186,0.0,6.0,78,0.00,,---,0.00,0.00,VWS V14.00,2013-06-26 05:21:00,
2013-06-26 00:26:00,80.0,72.5,29.91,South,178,3.0,6.0,78,0.00,,---,0.00,0.00,VWS V14.00,2013-06-26 05:26:00,
2013-06-26 00:30:00,80.0,72.5,29.91,South,178,2.0,6.0,78,0.00,,---,0.00,0.00,VWS V14.00,2013-06-26 05:30:00,
2013-06-26 00:31:00,80.0,72.5,29.91,South,169,0.0,5.0,78,0.00,,---,0.00,0.00,VWS V14.00,2013-06-26 05:31:00,
2013-06-26 00:36:00,79.8,72.3,29.91,South,175,0.0,5.0,78,0.00,,---,0.00,0.00,VWS V14.00,2013-06-26 05:36:00,
2013-06-26 00:41:00,79.7,72.6,29.91,South,184,0.0,5.0,79,0.00,,---,0.00,0.00,VWS V14.00,2013-06-26 05:41:00,
2013-06-26 00:46:00,79.7,72.6,29.91,South,171,0.0,5.0,79,0.00,,---,0.00,0.00,VWS V14.00,2013-06-26 05:46:00,
2013-06-26 00:51:00,79.6,72.5,29.91,South,170,0.0,5.0,79,0.00,,---,0.00,0.00,VWS V14.00,2013-06-26 05:51:00,
2013-06-26 00:56:00,79.5,72.4,29.91,South,170,0.0,5.0,79,0.00,,---,0.00,0.00,VWS V14.00,2013-06-26 05:56:00,
2013-06-26 01:00:00,79.5,72.4,29.91,South,170,0.0,5.0,79,0.00,,---,0.00,0.00,VWS V14.00,2013-06-26 06:00:00,
2013-06-26 01:01:00,79.4,72.3,29.91,South,169,2.0,4.0,79,0.00,,---,0.00,0.00,VWS V14.00,2013-06-26 06:01:00,
2013-06-26 01:06:00,79.2,72.5,29.91,South,171,0.0,5.0,80,0.00,,---,0.00,0.00,VWS V14.00,2013-06-26 06:06:00,
2013-06-26 01:11:00,79.2,72.5,29.91,South,171,0.0,5.0,80,0.00,,---,0.00,0.00,VWS V14.00,2013-06-26 06:11:00,
2013-06-26 01:16:00,79.0,72.3,29.90,South,172,0.0,5.0,80,0.00,,---,0.00,0.00,VWS V14.00,2013-06-26 06:16:00,
2013-06-26 01:21:00,78.9,72.6,29.91,South,179,0.0,5.0,81,0.00,,---,0.00,0.00,VWS V14.00,2013-06-26 06:21:00,
2013-06-26 01:26:00,78.9,72.6,29.91,South,178,0.0,5.0,81,0.00,,---,0.00,0.00,VWS V14.00,2013-06-26 06:26:00,
2013-06-26 01:30:00,78.9,72.6,29.91,South,178,0.0,5.0,81,0.00,,---,0.00,0.00,VWS V14.00,2013-06-26 06:30:00,
2013-06-26 01:31:00,78.9,72.6,29.91,South,178,0.0,0.0,81,0.00,,---,0.00,0.00,VWS V14.00,2013-06-26 06:31:00,
2013-06-26 01:36:00,78.8,72.5,29.91,South,178,0.0,1.0,81,0.00,,---,0.00,0.00,VWS V14.00,2013-06-26 06:36:00,
2013-06-26 01:41:00,78.8,72.5,29.91,South,178,0.0,1.0,81,0.00,,---,0.00,0.00,VWS V14.00,2013-06-26 06:41:00,
2013-06-26 01:46:00,78.7,72.8,29.91,South,179,0.0,1.0,82,0.00,,---,0.00,0.00,VWS V14.00,2013-06-26 06:46:00,
2013-06-26 01:51:00,78.6,72.7,29.91,South,179,0.0,1.0,82,0.00,,---,0.00,0.00,VWS V14.00,2013-06-26 06:51:00,
2013-06-26 01:56:00,78.5,72.6,29.91,South,180,0.0,1.0,82,0.00,,---,0.00,0.00,VWS V14.00,2013-06-26 06:56:00,
2013-06-26 02:00:00,78.5,72.6,29.91,South,180,0.0,1.0,82,0.00,,---,0.00,0.00,VWS V14.00,2013-06-26 07:00:00,
2013-06-26 02:01:00,78.6,73.0,29.91,South,180,0.0,0.0,83,0.00,,---,0.00,0.00,VWS V14.00,2013-06-26 07:01:00,
2013-06-26 02:06:00,78.6,73.0,29.91,South,180,0.0,5.0,83,0.00,,---,0.00,0.00,VWS V14.00,2013-06-26 07:06:00,
2013-06-26 02:11:00,78.7,73.1,29.91,South,179,0.0,5.0,83,0.00,,---,0.00,0.00,VWS V14.00,2013-06-26 07:11:00,
2013-06-26 02:16:00,78.7,73.1,29.91,South,179,0.0,5.0,83,0.00,,---,0.00,0.00,VWS V14.00,2013-06-26 07:16:00,
2013-06-26 02:21:00,78.6,73.0,29.90,South,182,0.0,5.0,83,0.00,,---,0.00,0.00,VWS V14.00,2013-06-26 07:21:00,
2013-06-26 02:26:00,78.6,73.0,29.91,South,182,0.0,5.0,83,0.00,,---,0.00,0.00,VWS V14.00,2013-06-26 07:26:00,
2013-06-26 02:30:00,78.6,73.0,29.91,South,182,0.0,5.0,83,0.00,,---,0.00,0.00,VWS V14.00,2013-06-26 07:30:00,
2013-06-26 02:31:00,78.5,72.9,29.91,South,180,0.0,1.0,83,0.00,,---,0.00,0.00,VWS V14.00,2013-06-26 07:31:00,
2013-06-26 02:36:00,78.4,72.8,29.90,South,180,0.0,1.0,83,0.00,,---,0.00,0.00,VWS V14.00,2013-06-26 07:36:00,
2013-06-26 02:41:00,78.4,72.8,29.91,South,180,0.0,1.0,83,0.00,,---,0.00,0.00,VWS V14.00,2013-06-26 07:41:00,
2013-06-26 02:46:00,78.2,72.6,29.91,South,171,0.0,1.0,83,0.00,,---,0.00,0.00,VWS V14.00,2013-06-26 07:46:00,
2013-06-26 02:51:00,78.1,72.5,29.91,South,171,0.0,1.0,83,0.00,,---,0.00,0.00,VWS V14.00,2013-06-26 07:51:00,
2013-06-26 02:56:00,78.0,72.4,29.91,South,171,0.0,1.0,83,0.00,,---,0.00,0.00,VWS V14.00,2013-06-26 07:56:00,
2013-06-26 03:00:00,78.0,72.8,29.91,South,171,0.0,1.0,84,0.00,,---,0.00,0.00,VWS V14.00,2013-06-26 08:00:00,
2013-06-26 03:01:00,77.9,72.7,29.91,South,171,0.0,0.0,84,0.00,,---,0.00,0.00,VWS V14.00,2013-06-26 08:01:00,
2013-06-26 03:06:00,77.8,72.6,29.91,South,171,0.0,0.0,84,0.00,,---,0.00,0.00,VWS V14.00,2013-06-26 08:06:00,
2013-06-26 03:11:00,77.6,72.7,29.91,South,171,0.0,0.0,85,0.00,,---,0.00,0.00,VWS V14.00,2013-06-26 08:11:00,
2013-06-26 03:16:00,77.5,72.6,29.91,South,171,0.0,0.0,85,0.00,,---,0.00,0.00,VWS V14.00,2013-06-26 08:16:00,
2013-06-26 03:21:00,77.3,72.4,29.91,South,171,0.0,0.0,85,0.00,,---,0.00,0.00,VWS V14.00,2013-06-26 08:21:00,
2013-06-26 03:26:00,77.2,72.3,29.91,South,171,0.0,0.0,85,0.00,,---,0.00,0.00,VWS V14.00,2013-06-26 08:26:00,
2013-06-26 03:30:00,77.2,72.3,29.91,South,171,0.0,0.0,85,0.00,,---,0.00,0.00,VWS V14.00,2013-06-26 08:30:00,
2013-06-26 03:31:00,77.1,72.6,29.91,South,171,0.0,1.0,86,0.00,,---,0.00,0.00,VWS V14.00,2013-06-26 08:31:00,
2013-06-26 03:36:00,76.9,72.4,29.91,South,171,0.0,1.0,86,0.00,,---,0.00,0.00,VWS V14.00,2013-06-26 08:36:00,
2013-06-26 03:41:00,76.9,72.4,29.90,South,171,0.0,1.0,86,0.00,,---,0.00,0.00,VWS V14.00,2013-06-26 08:41:00,
2013-06-26 03:46:00,76.8,72.3,29.90,South,171,0.0,1.0,86,0.00,,---,0.00,0.00,VWS V14.00,2013-06-26 08:46:00,
2013-06-26 03:51:00,76.7,72.5,29.91,South,171,0.0,1.0,87,0.00,,---,0.00,0.00,VWS V14.00,2013-06-26 08:51:00,
2013-06-26 03:56:00,76.7,72.5,29.91,South,171,0.0,1.0,87,0.00,,---,0.00,0.00,VWS V14.00,2013-06-26 08:56:00,
2013-06-26 04:00:00,76.7,72.5,29.91,South,171,0.0,1.0,87,0.00,,---,0.00,0.00,VWS V14.00,2013-06-26 09:00:00,
2013-06-26 04:01:00,76.7,72.5,29.90,South,171,0.0,1.0,87,0.00,,---,0.00,0.00,VWS V14.00,2013-06-26 09:01:00,
2013-06-26 04:06:00,76.8,72.6,29.90,South,173,0.0,4.0,87,0.00,,---,0.00,0.00,VWS V14.00,2013-06-26 09:06:00,
2013-06-26 04:11:00,76.9,72.7,29.90,South,178,0.0,4.0,87,0.00,,---,0.00,0.00,VWS V14.00,2013-06-26 09:11:00,
2013-06-26 04:16:00,76.9,72.7,29.90,South,176,2.0,4.0,87,0.00,,---,0.00,0.00,VWS V14.00,2013-06-26 09:16:00,
2013-06-26 04:20:00,76.9,72.7,29.90,South,171,0.0,4.0,87,0.00,,---,0.00,0.00,VWS V14.00,2013-06-26 09:20:00,
2013-06-26 04:25:00,76.9,73.1,29.90,South,171,0.0,4.0,88,0.00,,---,0.00,0.00,VWS V14.00,2013-06-26 09:25:00,
2013-06-26 04:30:00,76.9,73.1,29.90,South,169,0.0,4.0,88,0.00,,---,0.00,0.00,VWS V14.00,2013-06-26 09:30:00,
2013-06-26 04:35:00,76.9,73.1,29.90,South,179,0.0,4.0,88,0.00,,---,0.00,0.00,VWS V14.00,2013-06-26 09:35:00,
2013-06-26 04:40:00,76.9,73.1,29.90,South,187,0.0,4.0,88,0.00,,---,0.00,0.00,VWS V14.00,2013-06-26 09:40:00,
2013-06-26 04:45:00,77.0,73.2,29.90,SSE,168,0.0,7.0,88,0.00,,---,0.00,0.00,VWS V14.00,2013-06-26 09:45:00,
2013-06-26 04:50:00,77.0,73.2,29.91,SSW,201,0.0,7.0,88,0.00,,---,0.00,0.00,VWS V14.00,2013-06-26 09:50:00,
2013-06-26 04:55:00,77.1,73.3,29.90,South,190,2.0,7.0,88,0.00,,---,0.00,0.00,VWS V14.00,2013-06-26 09:55:00,
2013-06-26 05:00:00,77.3,73.5,29.91,South,185,2.0,5.0,88,0.00,,---,0.00,0.00,VWS V14.00,2013-06-26 10:00:00,
2013-06-26 05:05:00,77.3,73.1,29.91,South,175,0.0,7.0,87,0.00,,---,0.00,0.00,VWS V14.00,2013-06-26 10:05:00,
2013-06-26 05:10:00,77.3,73.1,29.91,SSW,210,2.0,10.0,87,0.00,,---,0.00,0.00,VWS V14.00,2013-06-26 10:10:00,
2013-06-26 05:15:00,77.3,73.1,29.91,South,169,0.0,10.0,87,0.00,,---,0.00,0.00,VWS V14.00,2013-06-26 10:15:00,
2013-06-26 05:20:00,77.2,73.4,29.92,South,183,0.0,10.0,88,0.00,,---,0.00,0.00,VWS V14.00,2013-06-26 10:20:00,
2013-06-26 05:25:00,77.2,73.4,29.92,South,169,0.0,10.0,88,0.00,,---,0.00,0.00,VWS V14.00,2013-06-26 10:25:00,
2013-06-26 05:30:00,77.1,73.3,29.92,South,172,0.0,0.0,88,0.00,,---,0.00,0.00,VWS V14.00,2013-06-26 10:30:00,
2013-06-26 05:35:00,77.1,73.3,29.92,SSE,167,0.0,1.0,88,0.00,,---,0.00,0.00,VWS V14.00,2013-06-26 10:35:00,
2013-06-26 05:40:00,77.0,73.2,29.93,SSW,198,0.0,1.0,88,0.00,,---,0.00,0.00,VWS V14.00,2013-06-26 10:40:00,
2013-06-26 05:45:00,77.0,73.2,29.93,South,178,0.0,1.0,88,0.00,,---,0.00,0.00,VWS V14.00,2013-06-26 10:45:00,
2013-06-26 05:50:00,76.9,73.4,29.93,South,173,0.0,5.0,89,0.00,,---,0.00,0.00,VWS V14.00,2013-06-26 10:50:00,
2013-06-26 05:55:00,76.9,73.4,29.93,South,188,0.0,5.0,89,0.00,,---,0.00,5.00,VWS V14.00,2013-06-26 10:55:00,
2013-06-26 06:00:00,76.9,73.4,29.93,SE,146,0.0,3.0,89,0.00,,---,0.00,9.00,VWS V14.00,2013-06-26 11:00:00,
2013-06-26 06:05:00,76.8,73.3,29.94,SSE,153,0.0,3.0,89,0.00,,---,0.00,12.00,VWS V14.00,2013-06-26 11:05:00,
2013-06-26 06:10:00,76.7,73.2,29.94,SSE,163,0.0,3.0,89,0.00,,---,0.00,16.00,VWS V14.00,2013-06-26 11:10:00,
2013-06-26 06:15:00,76.6,73.1,29.94,SSE,163,0.0,3.0,89,0.00,,---,0.00,21.00,VWS V14.00,2013-06-26 11:15:00,
2013-06-26 06:20:00,76.5,73.0,29.95,SSE,163,0.0,3.0,89,0.00,,---,0.00,25.00,VWS V14.00,2013-06-26 11:20:00,
2013-06-26 06:25:00,76.4,73.2,29.95,South,169,0.0,3.0,90,0.00,,---,0.00,28.00,VWS V14.00,2013-06-26 11:25:00,
2013-06-26 06:30:00,76.4,73.2,29.94,South,175,2.0,3.0,90,0.00,,---,0.00,32.00,VWS V14.00,2013-06-26 11:30:00,
2013-06-26 06:35:00,76.4,73.2,29.95,South,170,0.0,4.0,90,0.00,,---,0.00,35.00,VWS V14.00,2013-06-26 11:35:00,
2013-06-26 06:40:00,76.4,73.2,29.94,South,188,0.0,4.0,90,0.00,,---,0.00,39.00,VWS V14.00,2013-06-26 11:40:00,
2013-06-26 06:45:00,76.4,73.2,29.94,SSW,194,0.0,4.0,90,0.00,,---,0.00,42.00,VWS V14.00,2013-06-26 11:45:00,
2013-06-26 06:50:00,76.5,73.3,29.95,South,179,0.0,5.0,90,0.00,,---,0.00,44.00,VWS V14.00,2013-06-26 11:50:00,
2013-06-26 06:55:00,76.6,73.4,29.95,South,190,0.0,6.0,90,0.00,,---,0.00,47.00,VWS V14.00,2013-06-26 11:55:00,
2013-06-26 07:00:00,76.7,73.6,29.95,SSW,212,0.0,7.0,90,0.00,,---,0.00,49.00,VWS V14.00,2013-06-26 12:00:00,
2013-06-26 07:05:00,76.9,73.8,29.95,SSW,200,0.0,7.0,90,0.00,,---,0.00,53.00,VWS V14.00,2013-06-26 12:05:00,
2013-06-26 07:10:00,77.0,73.8,29.95,South,174,3.0,7.0,90,0.00,,---,0.00,58.00,VWS V14.00,2013-06-26 12:10:00,
2013-06-26 07:15:00,77.1,73.9,29.95,SSW,206,0.0,7.0,90,0.00,,---,0.00,62.00,VWS V14.00,2013-06-26 12:15:00,
2013-06-26 07:20:00,77.3,74.1,29.96,SSW,199,0.0,7.0,90,0.00,,---,0.00,65.00,VWS V14.00,2013-06-26 12:20:00,
2013-06-26 07:25:00,77.5,74.3,29.95,South,189,0.0,7.0,90,0.00,,---,0.00,79.00,VWS V14.00,2013-06-26 12:25:00,
2013-06-26 07:30:00,77.7,74.2,29.96,South,190,0.0,7.0,89,0.00,,---,0.00,86.00,VWS V14.00,2013-06-26 12:30:00,
2013-06-26 07:35:00,78.0,74.5,29.95,SW,223,0.0,9.0,89,0.00,,---,0.00,86.00,VWS V14.00,2013-06-26 12:35:00,
2013-06-26 07:40:00,78.2,74.7,29.96,SSW,196,0.0,9.0,89,0.00,,---,0.00,95.00,VWS V14.00,2013-06-26 12:40:00,
2013-06-26 07:45:00,78.5,74.7,29.96,SSW,194,0.0,9.0,88,0.00,,---,0.00,98.00,VWS V14.00,2013-06-26 12:45:00,
2013-06-26 07:50:00,78.8,74.9,29.96,SSW,202,3.0,10.0,88,0.00,,---,0.00,100.00,VWS V14.00,2013-06-26 12:50:00,
2013-06-26 07:55:00,79.1,75.2,29.96,South,189,0.0,10.0,88,0.00,,---,0.00,90.00,VWS V14.00,2013-06-26 12:55:00,
2013-06-26 08:00:00,79.3,75.1,29.96,SW,225,0.0,4.0,87,0.00,,---,0.00,76.00,VWS V14.00,2013-06-26 13:00:00,
2013-06-26 08:05:00,79.3,75.1,29.96,WSW,237,0.0,10.0,87,0.00,,---,0.00,90.00,VWS V14.00,2013-06-26 13:05:00,
2013-06-26 08:10:00,79.5,75.3,29.96,SSW,202,0.0,10.0,87,0.00,,---,0.00,86.00,VWS V14.00,2013-06-26 13:10:00,
2013-06-26 08:15:00,79.7,75.5,29.96,SSW,194,2.0,10.0,87,0.00,,---,0.00,86.00,VWS V14.00,2013-06-26 13:15:00,
2013-06-26 08:20:00,80.0,75.4,29.96,South,178,0.0,10.0,86,0.00,,---,0.00,90.00,VWS V14.00,2013-06-26 13:20:00,
2013-06-26 08:25:00,80.1,75.5,29.96,SSW,208,3.0,11.0,86,0.00,,---,0.00,97.00,VWS V14.00,2013-06-26 13:25:00,
2013-06-26 08:30:00,80.3,75.7,29.97,WSW,253,6.0,8.0,86,0.00,,---,0.00,107.00,VWS V14.00,2013-06-26 13:30:00,
2013-06-26 08:35:00,80.5,75.9,29.96,South,180,8.0,8.0,86,0.00,,---,0.00,272.00,VWS V14.00,2013-06-26 13:35:00,
2013-06-26 08:40:00,80.8,75.9,29.96,SW,229,0.0,13.0,85,0.00,,---,0.00,105.00,VWS V14.00,2013-06-26 13:40:00,
2013-06-26 08:45:00,81.0,76.1,29.97,SW,225,0.0,13.0,85,0.00,,---,0.00,308.00,VWS V14.00,2013-06-26 13:45:00,
2013-06-26 08:50:00,81.2,75.9,29.97,SW,231,5.0,13.0,84,0.00,,---,0.00,378.00,VWS V14.00,2013-06-26 13:50:00,
2013-06-26 08:55:00,81.5,76.2,29.97,WSW,246,3.0,14.0,84,0.00,,---,0.00,404.00,VWS V14.00,2013-06-26 13:55:00,
2013-06-26 09:00:00,81.8,76.1,29.97,West,271,3.0,8.0,83,0.00,,---,0.00,413.00,VWS V14.00,2013-06-26 14:00:00,
2013-06-26 09:05:00,82.1,76.1,29.96,SW,232,6.0,16.0,82,0.00,,---,0.00,422.00,VWS V14.00,2013-06-26 14:05:00,
2013-06-26 09:10:00,82.3,76.3,29.96,SSW,196,4.0,16.0,82,0.00,,---,0.00,431.00,VWS V14.00,2013-06-26 14:10:00,
2013-06-26 09:15:00,82.3,75.9,29.95,WSW,242,6.0,16.0,81,0.00,,---,0.00,438.00,VWS V14.00,2013-06-26 14:15:00,
2013-06-26 09:20:00,82.5,76.4,29.95,SSW,207,0.0,16.0,82,0.00,,---,0.00,452.00,VWS V14.00,2013-06-26 14:20:00,
2013-06-26 09:25:00,82.8,76.4,29.95,WSW,246,4.0,16.0,81,0.00,,---,0.00,468.00,VWS V14.00,2013-06-26 14:25:00,
2013-06-26 09:30:00,82.9,75.7,29.95,SW,236,6.0,15.0,79,0.00,,---,0.00,480.00,VWS V14.00,2013-06-26 14:30:00,
2013-06-26 09:35:00,83.0,75.8,29.95,SSE,163,4.0,17.0,79,0.00,,---,0.00,490.00,VWS V14.00,2013-06-26 14:35:00,
2013-06-26 09:40:00,83.3,75.7,29.95,WSW,237,3.0,17.0,78,0.00,,---,0.00,508.00,VWS V14.00,2013-06-26 14:40:00,
2013-06-26 09:45:00,83.7,76.5,29.95,WSW,248,5.0,17.0,79,0.00,,---,0.00,522.00,VWS V14.00,2013-06-26 14:45:00,
2013-06-26 09:50:00,84.1,76.1,29.95,WSW,255,6.0,17.0,77,0.00,,---,0.00,534.00,VWS V14.00,2013-06-26 14:50:00,
2013-06-26 09:55:00,84.1,75.7,29.95,WSW,238,6.0,17.0,76,0.00,,---,0.00,547.00,VWS V14.00,2013-06-26 14:55:00,
2013-06-26 10:00:00,84.4,75.6,29.94,SSW,210,5.0,15.0,75,0.00,,---,0.00,547.00,VWS V14.00,2013-06-26 15:00:00,
2013-06-26 10:05:00,84.7,76.3,29.94,South,185,3.0,15.0,76,0.00,,---,0.00,568.00,VWS V14.00,2013-06-26 15:05:00,
2013-06-26 10:10:00,85.0,75.4,29.94,WSW,243,3.0,16.0,73,0.00,,---,0.00,582.00,VWS V14.00,2013-06-26 15:10:00,
2013-06-26 10:15:00,85.2,76.0,29.94,South,190,3.0,16.0,74,0.00,,---,0.00,629.00,VWS V14.00,2013-06-26 15:15:00,
2013-06-26 10:20:00,85.4,75.8,29.93,WSW,250,2.0,18.0,73,0.00,,---,0.00,686.00,VWS V14.00,2013-06-26 15:20:00,
2013-06-26 10:25:00,85.7,76.1,29.93,SW,224,2.0,18.0,73,0.00,,---,0.00,640.00,VWS V14.00,2013-06-26 15:25:00,
2013-06-26 10:30:00,85.7,75.6,29.93,South,190,9.0,12.0,72,0.00,,---,0.00,691.00,VWS V14.00,2013-06-26 15:30:00,
2013-06-26 10:35:00,85.9,75.4,29.94,WSW,245,5.0,17.0,71,0.00,,---,0.00,759.00,VWS V14.00,2013-06-26 15:35:00,
2013-06-26 10:40:00,85.9,75.0,29.93,South,179,16.0,19.0,70,0.00,,---,0.00,288.00,VWS V14.00,2013-06-26 15:40:00,
2013-06-26 10:45:00,85.6,74.7,29.93,SSW,199,4.0,19.0,70,0.00,,---,0.00,624.00,VWS V14.00,2013-06-26 15:45:00,
2013-06-26 10:50:00,85.7,75.2,29.93,South,184,2.0,19.0,71,0.00,,---,0.00,693.00,VWS V14.00,2013-06-26 15:50:00,
2013-06-26 10:55:00,86.1,75.6,29.93,SSW,198,4.0,19.0,71,0.00,,---,0.00,680.00,VWS V14.00,2013-06-26 15:55:00,
2013-06-26 11:00:00,86.6,75.7,29.93,SW,217,9.0,17.0,70,0.00,,---,0.00,687.00,VWS V14.00,2013-06-26 16:00:00,
2013-06-26 11:05:00,86.7,75.3,29.93,WSW,250,3.0,18.0,69,0.00,,---,0.00,696.00,VWS V14.00,2013-06-26 16:05:00,
2013-06-26 11:10:00,86.8,73.6,29.94,South,180,6.0,19.0,65,0.00,,---,0.00,707.00,VWS V14.00,2013-06-26 16:10:00,
2013-06-26 11:15:00,86.8,74.5,29.94,SSW,194,7.0,19.0,67,0.00,,---,0.00,710.00,VWS V14.00,2013-06-26 16:15:00,
2013-06-26 11:20:00,87.0,74.3,29.94,SW,233,3.0,19.0,66,0.00,,---,0.00,715.00,VWS V14.00,2013-06-26 16:20:00,
2013-06-26 11:25:00,87.2,75.4,29.94,SW,232,5.0,19.0,68,0.00,,---,0.00,733.00,VWS V14.00,2013-06-26 16:25:00,
2013-06-26 11:30:00,87.6,75.3,29.94,South,170,11.0,12.0,67,0.00,,---,0.00,737.00,VWS V14.00,2013-06-26 16:30:00,
2013-06-26 11:35:00,87.7,75.4,29.94,WSW,241,9.0,19.0,67,0.00,,---,0.00,744.00,VWS V14.00,2013-06-26 16:35:00,
2013-06-26 11:40:00,87.7,74.0,29.94,SSW,207,0.0,19.0,64,0.00,,---,0.00,749.00,VWS V14.00,2013-06-26 16:40:00,
2013-06-26 11:45:00,88.0,74.8,29.94,SSW,195,5.0,19.0,65,0.00,,---,0.00,754.00,VWS V14.00,2013-06-26 16:45:00,
2013-06-26 11:50:00,88.1,74.9,29.94,WSW,253,10.0,19.0,65,0.00,,---,0.00,761.00,VWS V14.00,2013-06-26 16:50:00,
2013-06-26 11:55:00,88.3,74.6,29.94,WSW,237,10.0,19.0,64,0.00,,---,0.00,717.00,VWS V14.00,2013-06-26 16:55:00,
2013-06-26 12:00:00,88.4,75.1,29.94,SW,224,7.0,17.0,65,0.00,,---,0.00,227.00,VWS V14.00,2013-06-26 17:00:00,
2013-06-26 12:05:00,88.5,75.7,29.94,South,191,9.0,17.0,66,0.00,,---,0.00,155.00,VWS V14.00,2013-06-26 17:05:00,
2013-06-26 12:10:00,88.8,76.0,29.94,WSW,252,7.0,17.0,66,0.00,,---,0.00,155.00,VWS V14.00,2013-06-26 17:10:00,
2013-06-26 12:15:00,88.9,74.7,29.94,SW,234,10.0,17.0,63,0.00,,---,0.00,148.00,VWS V14.00,2013-06-26 17:15:00,
2013-06-26 12:20:00,88.9,75.6,29.93,South,188,7.0,17.0,65,0.00,,---,0.00,155.00,VWS V14.00,2013-06-26 17:20:00,
2013-06-26 12:25:00,89.2,75.0,29.94,SW,229,4.0,17.0,63,0.00,,---,0.00,151.00,VWS V14.00,2013-06-26 17:25:00,
2013-06-26 12:30:00,89.4,75.2,29.94,West,259,10.0,11.0,63,0.00,,---,0.00,160.00,VWS V14.00,2013-06-26 17:30:00,
2013-06-26 12:35:00,89.4,75.2,29.94,WSW,238,7.0,13.0,63,0.00,,---,0.00,171.00,VWS V14.00,2013-06-26 17:35:00,
2013-06-26 12:40:00,89.6,75.8,29.93,SW,229,5.0,15.0,64,0.00,,---,0.00,167.00,VWS V14.00,2013-06-26 17:40:00,
2013-06-26 12:45:00,89.8,75.1,29.93,SSW,213,5.0,18.0,62,0.00,,---,0.00,441.00,VWS V14.00,2013-06-26 17:45:00,
2013-06-26 12:50:00,89.8,76.5,29.93,West,261,5.0,18.0,65,0.00,,---,0.00,759.00,VWS V14.00,2013-06-26 17:50:00,
2013-06-26 12:55:00,89.9,75.1,29.93,West,261,9.0,18.0,62,0.00,,---,0.00,856.00,VWS V14.00,2013-06-26 17:55:00,
2013-06-26 13:00:00,90.0,74.8,29.93,SW,230,2.0,13.0,61,0.00,,---,0.00,833.00,VWS V14.00,2013-06-26 18:00:00,
2013-06-26 13:05:00,90.0,75.2,29.93,WSW,246,5.0,18.0,62,0.00,,---,0.00,860.00,VWS V14.00,2013-06-26 18:05:00,
2013-06-26 13:10:00,90.1,75.3,29.92,West,259,1.0,18.0,62,0.00,,---,0.00,879.00,VWS V14.00,2013-06-26 18:10:00,
2013-06-26 13:15:00,90.7,75.9,29.92,SW,232,0.0,18.0,62,0.00,,---,0.00,826.00,VWS V14.00,2013-06-26 18:15:00,
2013-06-26 13:20:00,90.8,75.5,29.92,WSW,253,2.0,18.0,61,0.00,,---,0.00,860.00,VWS V14.00,2013-06-26 18:20:00,
2013-06-26 13:25:00,90.8,75.0,29.92,SSW,205,6.0,18.0,60,0.00,,---,0.00,846.00,VWS V14.00,2013-06-26 18:25:00,
2013-06-26 13:30:00,90.8,76.5,29.91,SSW,207,3.0,11.0,63,0.00,,---,0.00,784.00,VWS V14.00,2013-06-26 18:30:00,
2013-06-26 13:35:00,91.0,75.7,29.91,WSW,244,5.0,15.0,61,0.00,,---,0.00,679.00,VWS V14.00,2013-06-26 18:35:00,
2013-06-26 13:40:00,90.6,75.3,29.91,WSW,247,7.0,15.0,61,0.00,,---,0.00,668.00,VWS V14.00,2013-06-26 18:40:00,
2013-06-26 13:45:00,90.5,76.7,29.90,SW,215,4.0,15.0,64,0.00,,---,0.00,737.00,VWS V14.00,2013-06-26 18:45:00,
2013-06-26 13:50:00,90.6,76.3,29.90,SW,214,11.0,16.0,63,0.00,,---,0.00,861.00,VWS V14.00,2013-06-26 18:50:00,
2013-06-26 13:55:00,90.7,75.9,29.90,South,186,3.0,16.0,62,0.00,,---,0.00,944.00,VWS V14.00,2013-06-26 18:55:00,
2013-06-26 14:00:00,91.1,75.8,29.90,WSW,244,13.0,13.0,61,0.00,,---,0.00,925.00,VWS V14.00,2013-06-26 19:00:00,
2013-06-26 14:05:00,91.3,75.5,29.89,SW,218,9.0,13.0,60,0.00,,---,0.00,745.00,VWS V14.00,2013-06-26 19:05:00,
2013-06-26 14:10:00,91.3,76.5,29.89,South,181,3.0,13.0,62,0.00,,---,0.00,842.00,VWS V14.00,2013-06-26 19:10:00,
2013-06-26 14:15:00,91.3,76.9,29.89,WSW,238,4.0,15.0,63,0.00,,---,0.00,842.00,VWS V14.00,2013-06-26 19:15:00,
2013-06-26 14:20:00,91.4,75.6,29.89,South,191,12.0,15.0,60,0.00,,---,0.00,882.00,VWS V14.00,2013-06-26 19:20:00,
2013-06-26 14:25:00,91.4,75.1,29.89,South,189,6.0,17.0,59,0.00,,---,0.00,763.00,VWS V14.00,2013-06-26 19:25:00,
2013-06-26 14:30:00,91.2,76.4,29.89,WSW,238,2.0,10.0,62,0.00,,---,0.00,798.00,VWS V14.00,2013-06-26 19:30:00,
2013-06-26 14:35:00,91.2,75.4,29.88,SSW,192,10.0,17.0,60,0.00,,---,0.00,708.00,VWS V14.00,2013-06-26 19:35:00,
2013-06-26 14:40:00,91.2,76.4,29.88,West,261,4.0,17.0,62,0.00,,---,0.00,837.00,VWS V14.00,2013-06-26 19:40:00,
2013-06-26 14:45:00,91.8,76.4,29.89,WSW,247,7.0,17.0,61,0.00,,---,0.00,761.00,VWS V14.00,2013-06-26 19:45:00,
2013-06-26 14:50:00,92.1,76.7,29.88,SW,226,9.0,17.0,61,0.00,,---,0.00,826.00,VWS V14.00,2013-06-26 19:50:00,
2013-06-26 14:55:00,92.2,76.3,29.88,SW,222,6.0,17.0,60,0.00,,---,0.00,877.00,VWS V14.00,2013-06-26 19:55:00,
2013-06-26 15:00:00,92.1,75.7,29.88,SW,232,7.0,15.0,59,0.00,,---,0.00,835.00,VWS V14.00,2013-06-26 20:00:00,
2013-06-26 15:05:00,92.2,76.3,29.88,SW,225,3.0,15.0,60,0.00,,---,0.00,860.00,VWS V14.00,2013-06-26 20:05:00,
2013-06-26 15:10:00,92.4,77.0,29.88,WSW,246,6.0,15.0,61,0.00,,---,0.00,759.00,VWS V14.00,2013-06-26 20:10:00,
2013-06-26 15:15:00,92.2,75.8,29.87,SW,234,4.0,15.0,59,0.00,,---,0.00,506.00,VWS V14.00,2013-06-26 20:15:00,
2013-06-26 15:20:00,92.0,75.1,29.87,SW,227,0.0,15.0,58,0.00,,---,0.00,585.00,VWS V14.00,2013-06-26 20:20:00,
2013-06-26 15:25:00,91.8,76.4,29.87,SW,217,0.0,15.0,61,0.00,,---,0.00,570.00,VWS V14.00,2013-06-26 20:25:00,
2013-06-26 15:30:00,92.0,77.1,29.87,SW,234,4.0,5.0,62,0.00,,---,0.00,547.00,VWS V14.00,2013-06-26 20:30:00,
2013-06-26 15:35:00,92.0,75.6,29.87,WSW,254,4.0,8.0,59,0.00,,---,0.00,645.00,VWS V14.00,2013-06-26 20:35:00,
2013-06-26 15:40:00,92.1,73.6,29.86,West,273,10.0,13.0,55,0.00,,---,0.00,636.00,VWS V14.00,2013-06-26 20:40:00,
2013-06-26 15:45:00,91.9,73.4,29.86,SW,216,2.0,13.0,55,0.00,,---,0.00,519.00,VWS V14.00,2013-06-26 20:45:00,
2013-06-26 15:50:00,91.8,73.3,29.86,SW,218,3.0,13.0,55,0.00,,---,0.00,635.00,VWS V14.00,2013-06-26 20:50:00,
2013-06-26 15:55:00,91.7,73.8,29.85,WSW,254,6.0,13.0,56,0.00,,---,0.00,631.00,VWS V14.00,2013-06-26 20:55:00,
2013-06-26 16:00:00,91.7,71.6,29.85,WSW,258,11.0,12.0,52,0.00,,---,0.00,613.00,VWS V14.00,2013-06-26 21:00:00,
2013-06-26 16:05:00,91.7,71.0,29.85,SW,230,2.0,13.0,51,0.00,,---,0.00,608.00,VWS V14.00,2013-06-26 21:05:00,
2013-06-26 16:10:00,91.8,70.5,29.85,WSW,237,1.0,13.0,50,0.00,,---,0.00,570.00,VWS V14.00,2013-06-26 21:10:00,
2013-06-26 16:15:00,91.9,72.3,29.85,SSW,213,3.0,13.0,53,0.00,,---,0.00,598.00,VWS V14.00,2013-06-26 21:15:00,
2013-06-26 16:20:00,92.0,73.0,29.85,SSW,210,2.0,13.0,54,0.00,,---,0.00,619.00,VWS V14.00,2013-06-26 21:20:00,
2013-06-26 16:25:00,92.1,72.0,29.84,SW,230,1.0,13.0,52,0.00,,---,0.00,570.00,VWS V14.00,2013-06-26 21:25:00,
2013-06-26 16:30:00,92.0,71.9,29.84,SW,236,2.0,7.0,52,0.00,,---,0.00,570.00,VWS V14.00,2013-06-26 21:30:00,
2013-06-26 16:35:00,92.2,72.6,29.84,WSW,238,3.0,9.0,53,0.00,,---,0.00,554.00,VWS V14.00,2013-06-26 21:35:00,
2013-06-26 16:40:00,92.3,73.3,29.84,WSW,252,4.0,9.0,54,0.00,,---,0.00,538.00,VWS V14.00,2013-06-26 21:40:00,
2013-06-26 16:45:00,92.2,72.6,29.83,SW,222,0.0,12.0,53,0.00,,---,0.00,515.00,VWS V14.00,2013-06-26 21:45:00,
2013-06-26 16:50:00,92.0,73.0,29.83,SW,236,3.0,12.0,54,0.00,,---,0.00,545.00,VWS V14.00,2013-06-26 21:50:00,
2013-06-26 16:55:00,91.9,71.2,29.84,WSW,243,7.0,12.0,51,0.00,,---,0.00,517.00,VWS V14.00,2013-06-26 21:55:00,
2013-06-26 17:00:00,91.9,71.8,29.84,SSW,198,3.0,6.0,52,0.00,,---,0.00,508.00,VWS V14.00,2013-06-26 22:00:00,
2013-06-26 17:05:00,92.0,72.4,29.84,WSW,242,4.0,11.0,53,0.00,,---,0.00,501.00,VWS V14.00,2013-06-26 22:05:00,
2013-06-26 17:10:00,92.0,71.9,29.83,SSW,204,0.0,14.0,52,0.00,,---,0.00,489.00,VWS V14.00,2013-06-26 22:10:00,
2013-06-26 17:15:00,92.0,71.9,29.83,South,183,5.0,14.0,52,0.00,,---,0.00,468.00,VWS V14.00,2013-06-26 22:15:00,
2013-06-26 17:20:00,92.0,71.9,29.83,SW,234,6.0,14.0,52,0.00,,---,0.00,448.00,VWS V14.00,2013-06-26 22:20:00,
2013-06-26 17:25:00,91.9,72.9,29.83,SSW,195,3.0,14.0,54,0.00,,---,0.00,432.00,VWS V14.00,2013-06-26 22:25:00,
2013-06-26 17:30:00,91.8,72.2,29.83,SW,222,1.0,12.0,53,0.00,,---,0.00,413.00,VWS V14.00,2013-06-26 22:30:00,
2013-06-26 17:35:00,91.8,72.8,29.83,SW,225,0.0,13.0,54,0.00,,---,0.00,396.00,VWS V14.00,2013-06-26 22:35:00,
2013-06-26 17:40:00,91.9,72.9,29.83,WSW,240,1.0,13.0,54,0.00,,---,0.00,380.00,VWS V14.00,2013-06-26 22:40:00,
2013-06-26 17:45:00,91.9,72.3,29.83,SW,232,6.0,13.0,53,0.00,,---,0.00,364.00,VWS V14.00,2013-06-26 22:45:00,
2013-06-26 17:50:00,91.8,72.8,29.83,SW,234,2.0,13.0,54,0.00,,---,0.00,346.00,VWS V14.00,2013-06-26 22:50:00,
2013-06-26 17:55:00,91.7,72.7,29.82,SW,230,2.0,13.0,54,0.00,,---,0.00,329.00,VWS V14.00,2013-06-26 22:55:00,
2013-06-26 18:00:00,91.7,73.8,29.83,SSW,200,3.0,6.0,56,0.00,,---,0.00,315.00,VWS V14.00,2013-06-26 23:00:00,
2013-06-26 18:05:00,91.7,73.8,29.83,SSW,195,2.0,9.0,56,0.00,,---,0.00,297.00,VWS V14.00,2013-06-26 23:05:00,
2013-06-26 18:10:00,91.5,73.1,29.82,SSW,194,12.0,14.0,55,0.00,,---,0.00,279.00,VWS V14.00,2013-06-26 23:10:00,
2013-06-26 18:15:00,91.2,72.2,29.82,SSW,201,4.0,14.0,54,0.00,,---,0.00,262.00,VWS V14.00,2013-06-26 23:15:00,
2013-06-26 18:20:00,91.0,72.6,29.82,SSW,209,5.0,14.0,55,0.00,,---,0.00,234.00,VWS V14.00,2013-06-26 23:20:00,
2013-06-26 18:25:00,90.7,71.8,29.82,SSW,192,4.0,16.0,54,0.00,,---,0.00,230.00,VWS V14.00,2013-06-26 23:25:00,
2013-06-26 18:30:00,90.6,72.2,29.83,SW,229,6.0,12.0,55,0.00,,---,0.00,213.00,VWS V14.00,2013-06-26 23:30:00,
2013-06-26 18:35:00,90.4,72.1,29.83,South,188,1.0,12.0,55,0.00,,---,0.00,200.00,VWS V14.00,2013-06-26 23:35:00,
2013-06-26 18:40:00,90.3,72.5,29.83,WSW,240,5.0,12.0,56,0.00,,---,0.00,190.00,VWS V14.00,2013-06-26 23:40:00,
2013-06-26 18:45:00,90.2,72.4,29.83,WSW,239,2.0,12.0,56,0.00,,---,0.00,172.00,VWS V14.00,2013-06-26 23:45:00,
2013-06-26 18:50:00,90.2,72.4,29.84,WSW,242,3.0,12.0,56,0.00,,---,0.00,158.00,VWS V14.00,2013-06-26 23:50:00,
2013-06-26 18:55:00,90.0,72.7,29.84,SW,234,0.0,12.0,57,0.00,,---,0.00,142.00,VWS V14.00,2013-06-26 23:55:00,
2013-06-26 19:00:00,89.9,73.2,29.84,WSW,242,0.0,4.0,58,0.00,,---,0.00,100.00,VWS V14.00,2013-06-27 00:00:00,
2013-06-26 19:05:00,89.6,72.9,29.84,WSW,242,0.0,4.0,58,0.00,,---,0.00,63.00,VWS V14.00,2013-06-27 00:05:00,
2013-06-26 19:10:00,89.3,73.1,29.83,WSW,237,0.0,4.0,59,0.00,,---,0.00,58.00,VWS V14.00,2013-06-27 00:10:00,
2013-06-26 19:15:00,88.9,72.7,29.84,WSW,240,0.0,8.0,59,0.00,,---,0.00,62.00,VWS V14.00,2013-06-27 00:15:00,
2013-06-26 19:20:00,88.6,72.9,29.84,WSW,246,0.0,8.0,60,0.00,,---,0.00,62.00,VWS V14.00,2013-06-27 00:20:00,
2013-06-26 19:25:00,88.4,73.2,29.84,WSW,246,0.0,8.0,61,0.00,,---,0.00,44.00,VWS V14.00,2013-06-27 00:25:00,
2013-06-26 19:30:00,88.1,73.4,29.84,SW,236,0.0,0.0,62,0.00,,---,0.00,39.00,VWS V14.00,2013-06-27 00:30:00,
2013-06-26 19:35:00,87.9,73.3,29.84,SW,234,0.0,0.0,62,0.00,,---,0.00,33.00,VWS V14.00,2013-06-27 00:35:00,
2013-06-26 19:40:00,87.6,73.0,29.84,SW,234,0.0,0.0,62,0.00,,---,0.00,30.00,VWS V14.00,2013-06-27 00:40:00,
2013-06-26 19:45:00,87.3,73.2,29.84,SW,234,0.0,0.0,63,0.00,,---,0.00,26.00,VWS V14.00,2013-06-27 00:45:00,
2013-06-26 19:50:00,87.0,73.4,29.83,SW,234,0.0,0.0,64,0.00,,---,0.00,23.00,VWS V14.00,2013-06-27 00:50:00,
2013-06-26 19:55:00,86.8,73.2,29.83,SW,232,0.0,0.0,64,0.00,,---,0.00,18.00,VWS V14.00,2013-06-27 00:55:00,
2013-06-26 20:00:00,86.5,72.9,29.83,SW,232,0.0,0.0,64,0.00,,---,0.00,12.00,VWS V14.00,2013-06-27 01:00:00,
2013-06-26 20:05:00,86.3,73.2,29.83,SW,232,0.0,0.0,65,0.00,,---,0.00,9.00,VWS V14.00,2013-06-27 01:05:00,
2013-06-26 20:10:00,86.1,73.0,29.83,SW,232,0.0,1.0,65,0.00,,---,0.00,7.00,VWS V14.00,2013-06-27 01:10:00,
2013-06-26 20:15:00,86.0,73.3,29.83,SW,232,0.0,1.0,66,0.00,,---,0.00,5.00,VWS V14.00,2013-06-27 01:15:00,
2013-06-26 20:20:00,85.7,73.0,29.82,SW,232,0.0,1.0,66,0.00,,---,0.00,0.00,VWS V14.00,2013-06-27 01:20:00,
2013-06-26 20:25:00,85.5,72.8,29.82,SW,232,0.0,1.0,66,0.00,,---,0.00,0.00,VWS V14.00,2013-06-27 01:25:00,
2013-06-26 20:30:00,85.3,73.1,29.82,SW,232,0.0,0.0,67,0.00,,---,0.00,0.00,VWS V14.00,2013-06-27 01:30:00,
2013-06-26 20:35:00,85.2,73.0,29.82,SW,232,0.0,0.0,67,0.00,,---,0.00,0.00,VWS V14.00,2013-06-27 01:35:00,
2013-06-26 20:40:00,85.0,73.3,29.82,SW,232,0.0,0.0,68,0.00,,---,0.00,0.00,VWS V14.00,2013-06-27 01:40:00,
2013-06-26 20:45:00,84.8,73.1,29.82,SW,232,0.0,0.0,68,0.00,,---,0.00,0.00,VWS V14.00,2013-06-27 01:45:00,
2013-06-26 20:50:00,84.7,73.0,29.83,SW,231,0.0,0.0,68,0.00,,---,0.00,0.00,VWS V14.00,2013-06-27 01:50:00,
2013-06-26 20:55:00,84.6,73.3,29.82,SW,232,0.0,3.0,69,0.00,,---,0.00,0.00,VWS V14.00,2013-06-27 01:55:00,
2013-06-26 21:00:00,84.5,73.2,29.82,SW,231,0.0,3.0,69,0.00,,---,0.00,0.00,VWS V14.00,2013-06-27 02:00:00,
2013-06-26 21:05:00,84.3,73.0,29.83,SW,231,0.0,3.0,69,0.00,,---,0.00,0.00,VWS V14.00,2013-06-27 02:05:00,
2013-06-26 21:10:00,84.2,73.4,29.83,SW,231,0.0,3.0,70,0.00,,---,0.00,0.00,VWS V14.00,2013-06-27 02:10:00,
2013-06-26 21:15:00,84.1,73.3,29.83,SW,231,0.0,3.0,70,0.00,,---,0.00,0.00,VWS V14.00,2013-06-27 02:15:00,
2013-06-26 21:20:00,84.0,73.2,29.83,SW,231,0.0,3.0,70,0.00,,---,0.00,0.00,VWS V14.00,2013-06-27 02:20:00,
2013-06-26 21:25:00,83.9,73.1,29.83,SW,231,0.0,3.0,70,0.00,,---,0.00,0.00,VWS V14.00,2013-06-27 02:25:00,
2013-06-26 21:30:00,83.8,73.0,29.84,SW,231,0.0,0.0,70,0.00,,---,0.00,0.00,VWS V14.00,2013-06-27 02:30:00,
2013-06-26 21:35:00,83.7,73.3,29.84,SW,231,0.0,0.0,71,0.00,,---,0.00,0.00,VWS V14.00,2013-06-27 02:35:00,
2013-06-26 21:40:00,83.6,73.2,29.84,SW,231,0.0,0.0,71,0.00,,---,0.00,0.00,VWS V14.00,2013-06-27 02:40:00,
2013-06-26 21:45:00,83.5,73.1,29.84,SW,231,0.0,0.0,71,0.00,,---,0.00,0.00,VWS V14.00,2013-06-27 02:45:00,
2013-06-26 21:50:00,83.4,73.0,29.84,SW,231,0.0,0.0,71,0.00,,---,0.00,0.00,VWS V14.00,2013-06-27 02:50:00,
2013-06-26 21:55:00,83.3,72.9,29.85,WSW,255,0.0,5.0,71,0.00,,---,0.00,0.00,VWS V14.00,2013-06-27 02:55:00,
2013-06-26 22:00:00,83.4,73.0,29.85,WSW,252,0.0,0.0,71,0.00,,---,0.00,0.00,VWS V14.00,2013-06-27 03:00:00,
2013-06-26 22:05:00,83.4,73.0,29.85,WSW,257,0.0,5.0,71,0.00,,---,0.00,0.00,VWS V14.00,2013-06-27 03:05:00,
2013-06-26 22:10:00,83.4,73.4,29.85,West,261,0.0,5.0,72,0.00,,---,0.00,0.00,VWS V14.00,2013-06-27 03:10:00,
2013-06-26 22:15:00,83.4,73.4,29.85,West,260,0.0,5.0,72,0.00,,---,0.00,0.00,VWS V14.00,2013-06-27 03:15:00,
2013-06-26 22:20:00,83.4,73.4,29.85,WSW,244,0.0,5.0,72,0.00,,---,0.00,0.00,VWS V14.00,2013-06-27 03:20:00,
2013-06-26 22:25:00,83.3,73.3,29.85,SW,223,0.0,8.0,72,0.00,,---,0.00,0.00,VWS V14.00,2013-06-27 03:25:00,
2013-06-26 22:30:00,83.4,73.4,29.85,SW,229,6.0,6.0,72,0.00,,---,0.00,0.00,VWS V14.00,2013-06-27 03:30:00,
2013-06-26 22:35:00,83.4,73.4,29.85,SW,234,4.0,7.0,72,0.00,,---,0.00,0.00,VWS V14.00,2013-06-27 03:35:00,
2013-06-26 22:40:00,83.4,73.4,29.85,SW,232,0.0,7.0,72,0.00,,---,0.00,0.00,VWS V14.00,2013-06-27 03:40:00,
2013-06-26 22:45:00,83.4,73.8,29.85,SW,235,1.0,7.0,73,0.00,,---,0.00,0.00,VWS V14.00,2013-06-27 03:45:00,
2013-06-26 22:50:00,83.4,73.8,29.85,SW,218,0.0,7.0,73,0.00,,---,0.00,0.00,VWS V14.00,2013-06-27 03:50:00,
2013-06-26 22:55:00,83.4,73.8,29.85,WSW,246,0.0,7.0,73,0.00,,---,0.00,0.00,VWS V14.00,2013-06-27 03:55:00,
2013-06-26 23:00:00,83.3,74.2,29.85,WSW,238,0.0,0.0,74,0.00,,---,0.00,0.00,VWS V14.00,2013-06-27 04:00:00,
2013-06-26 23:01:00,83.3,74.2,29.85,WSW,238,0.0,0.0,74,0.00,,---,0.00,0.00,VWS V14.00,2013-06-27 04:01:00,
2013-06-26 23:06:00,83.3,74.2,29.85,SSW,202,0.0,4.0,74,0.00,,---,0.00,0.00,VWS V14.00,2013-06-27 04:06:00,
2013-06-26 23:11:00,83.2,74.1,29.84,SW,225,0.0,7.0,74,0.00,,---,0.00,0.00,VWS V14.00,2013-06-27 04:11:00,
2013-06-26 23:16:00,83.2,74.1,29.84,SW,220,0.0,7.0,74,0.00,,---,0.00,0.00,VWS V14.00,2013-06-27 04:16:00,
2013-06-26 23:21:00,83.1,74.4,29.84,SW,214,0.0,7.0,75,0.00,,---,0.00,0.00,VWS V14.00,2013-06-27 04:21:00,
2013-06-26 23:26:00,83.0,74.3,29.84,WSW,240,0.0,7.0,75,0.00,,---,0.00,0.00,VWS V14.00,2013-06-27 04:26:00,
2013-06-26 23:30:00,83.1,74.4,29.84,SW,236,0.0,7.0,75,0.00,,---,0.00,0.00,VWS V14.00,2013-06-27 04:30:00,
2013-06-26 23:31:00,83.0,74.3,29.84,SSW,211,0.0,6.0,75,0.00,,---,0.00,0.00,VWS V14.00,2013-06-27 04:31:00,
2013-06-26 23:36:00,83.0,74.3,29.84,WSW,237,0.0,7.0,75,0.00,,---,0.00,0.00,VWS V14.00,2013-06-27 04:36:00,
2013-06-26 23:41:00,83.0,74.3,29.84,SSW,196,5.0,10.0,75,0.00,,---,0.00,0.00,VWS V14.00,2013-06-27 04:41:00,
2013-06-26 23:46:00,83.0,74.3,29.84,SSW,205,3.0,10.0,75,0.00,,---,0.00,0.00,VWS V14.00,2013-06-27 04:46:00,
2013-06-26 23:51:00,83.0,74.3,29.85,SW,234,0.0,10.0,75,0.00,,---,0.00,0.00,VWS V14.00,2013-06-27 04:51:00,
2013-06-26 23:56:00,83.0,74.3,29.85,SSW,201,4.0,10.0,75,0.00,,---,0.00,0.00,VWS V14.00,2013-06-27 04:56:00,